[[{"header":{"parameterUnit":"m.s-1","parameterCategory":1,"la1":30.2991,"la2":30.254,"lo1":-89.0895,"lo2":-89.0444,"dy":0.0017,"dx":0.0017,"nx":28,"ny":28,"refTime":"2024-06-29T03:00:00:Z","depth":0,"parameterNumber":2,"parameterNumberName":"U-component_of_WINDS"},"data":[0,0,0,0,0,0,0,0,0,0,0,0,0,0,0,0,0,0,0,0,0,0,0,0,0,0,0,0,0,0,0,0,0,0,0,0,0,0,0,0,0,0,0,0,0,0,0,0,0,0,0,0,0,0,0,0,0,0,0.5869,0.587,0,0.5956,0.5957,0.5958,0.6039,0.604,0.6041,0.6042,0.6128,0.6129,0.613,0,0,0,0,0,0,0,0,0,0,0,0,0,0.577,0.5771,0.5869,0.587,0.5871,0.5956,0.5957,0.5958,0.6039,0.604,0.6042,0.6043,0.6127,0.6129,0.6131,0,0,0,0,0,0,0,0,0,0,0,0,0,0.583,0.5772,0.5869,0.5922,0.5928,0.5956,0.5957,0.5959,0.6039,0.604,0.6042,0.6043,0.6127,0.6129,0.6131,0.6112,0,0,0.6137,0.6138,0,0,0,0,0,0,0,0,0.5827,0.5834,0.5913,0.5918,0.5925,0.5989,0.5953,0.601,0.6038,0.5996,0.6042,0.6044,0.608,0.6086,0.6099,0.6116,0.612,0.6137,0.6138,0.6139,0.614,0,0,0,0,0,0,0,0.5822,0.583,0.5904,0.5914,0.5921,0.594,0.595,0.5964,0.6028,0.6,0.6006,0.6016,0.6083,0.6097,0.6101,0.6121,0.6137,0.6139,0.614,0.6141,0.6126,0.6124,0,0,0,0,0,0,0.5811,0.5826,0.5901,0.5906,0.5879,0.5941,0.5952,0.5966,0.6029,0.604,0.6014,0.6019,0.6092,0.6099,0.6105,0.6086,0.6139,0.6141,0.6142,0.6127,0.6125,0.6124,0,0,0,0,0,0,0.5808,0.5816,0.5897,0.5868,0.588,0.5941,0.5956,0.5967,0.5981,0.6039,0.6051,0.6016,0.6094,0.6102,0.611,0.609,0.6142,0.6144,0.6129,0.6127,0.6125,0.6048,0,0,0,0,0,0,0.5805,0.5815,0.581,0.5867,0.5881,0.5902,0.5955,0.5968,0.5984,0.5991,0.6044,0.6054,0.6096,0.6106,0.6111,0.6093,0.6145,0.6131,0.6128,0.6125,0.6052,0.6043,0.6035,0,0,0,0,0,0.5801,0.5784,0.5809,0.5818,0.5876,0.59,0.5908,0.5957,0.5982,0.5977,0.6014,0.6053,0.6091,0.6106,0.6113,0.6095,0.6133,0.6129,0.6126,0.6056,0.6045,0.6035,0,0,0,0,0,0,0.5722,0.5793,0.5821,0.5823,0.5855,0.5914,0.5908,0.5944,0.5969,0.5974,0.6033,0.6044,0.6045,0.6071,0.6087,0.6079,0.6117,0.6115,0.6062,0.6052,0.6043,0.6036,0.6147,0,0,0,0,0,0.5705,0.572,0.5781,0.5777,0.5791,0.5847,0.5859,0.5894,0.593,0.5943,0.5982,0.6013,0.6033,0.6044,0.6065,0.6057,0.6068,0.6048,0.6039,0.6032,0.6028,0.6024,0.6015,0.6112,0.6112,0.6112,0,0,0.5669,0.571,0.5716,0.5762,0.5791,0.5804,0.5858,0.587,0.5879,0.5945,0.5954,0.5983,0.6023,0.6021,0.6023,0.6043,0.6004,0.6027,0.6021,0.6022,0.6019,0.601,0.6002,0.611,0.611,0.611,0,0,0.5611,0.5644,0.5643,0.5671,0.5715,0.5752,0.5751,0.5805,0.5827,0.5838,0.5886,0.5898,0.5931,0.5956,0.5973,0.5923,0.5958,0.5928,0.5883,0.5877,0.587,0.5863,0.5843,0.5835,0.5925,0.5925,0.5925,0,0.5561,0.5584,0.5638,0.5647,0.5664,0.5725,0.5723,0.5748,0.5795,0.5805,0.5828,0.5869,0.59,0.5904,0.5892,0.5905,0.5904,0.5922,0.5867,0.5861,0.5855,0.5837,0.5829,0.5921,0.5921,0.5922,0.5922,0,0.5519,0.5534,0.5527,0.5572,0.559,0.5593,0.5646,0.5657,0.569,0.5724,0.5732,0.5772,0.5801,0.5805,0.5837,0.5813,0.5824,0.5856,0.5895,0.5841,0.5824,0.5818,0.5915,0.5916,0.5918,0.5919,0,0,0.5412,0.5487,0.5484,0.5504,0.5556,0.5568,0.5573,0.5603,0.5609,0.564,0.5644,0.567,0.5699,0.5718,0.5754,0.575,0.5705,0.5782,0.5784,0.5764,0.5678,0.5652,0.5643,0.5729,0.5728,0.5727,0.5674,0,0.5361,0.5375,0.5424,0.5423,0.5436,0.5493,0.5498,0.5529,0.5561,0.5575,0.561,0.5626,0.5665,0.5676,0.5675,0.571,0.5688,0.5715,0.5732,0.5732,0.5718,0.5635,0.5609,0.5556,0.5668,0.5667,0.5666,0,0.5303,0.533,0.533,0.5381,0.5388,0.5391,0.5421,0.5435,0.5471,0.5494,0.5515,0.5555,0.5562,0.5599,0.5608,0.5625,0.5635,0.5653,0.5652,0.5654,0.5694,0.5632,0.5541,0.5532,0.5657,0.5658,0.5659,0,0.5223,0.5259,0.5264,0.528,0.5339,0.5339,0.5364,0.5402,0.5416,0.5441,0.5451,0.5476,0.549,0.5508,0.5553,0.5577,0.5556,0.5598,0.5574,0.5572,0.5565,0.5564,0.5472,0.5575,0.5575,0.5575,0.5575,0,0.5159,0.5156,0.5228,0.523,0.5228,0.5284,0.5279,0.5309,0.5342,0.535,0.5402,0.5408,0.5468,0.548,0.5516,0.5516,0.5523,0.554,0.5549,0.5534,0.5531,0.554,0.5544,0.5573,0.5573,0.5574,0.5574,0,0.5068,0.5117,0.5125,0.518,0.5194,0.519,0.5237,0.524,0.5275,0.5284,0.5289,0.5343,0.536,0.5407,0.5437,0.546,0.545,0.5468,0.5437,0.5443,0.5415,0.5416,0.5322,0.5312,0.5423,0.5422,0.5421,0,0.5023,0.5023,0.5078,0.5087,0.511,0.5125,0.5139,0.5193,0.5206,0.5246,0.5244,0.5265,0.5285,0.5309,0.535,0.5372,0.539,0.5355,0.5393,0.5377,0.5386,0.5385,0.5384,0.5346,0.5345,0.5344,0.5343,0,0.4938,0.4962,0.4981,0.5008,0.5024,0.5048,0.5075,0.5079,0.514,0.5151,0.5169,0.5184,0.5214,0.5233,0.5262,0.5286,0.5323,0.5331,0.5326,0.5309,0.529,0.5298,0.5412,0.5332,0.5333,0.5334,0.5335,0.5335,0.4867,0.4869,0.4907,0.4927,0.4953,0.4976,0.4981,0.5017,0.5033,0.5062,0.5093,0.5107,0.5142,0.5184,0.5204,0.5215,0.5235,0.5229,0.5227,0.5224,0.5216,0.5291,0.5221,0.5221,0.5222,0.5222,0.5222,0,0.4783,0.481,0.4828,0.4863,0.4878,0.4914,0.4945,0.4954,0.4966,0.4996,0.5014,0.5034,0.5053,0.5095,0.5118,0.5118,0.5135,0.5122,0.5121,0.5125,0.5198,0.5199,0.5107,0.5107,0.5107,0.5107,0.5107,0.5107,0.474,0.4743,0.4771,0.4787,0.4815,0.483,0.4844,0.4865,0.4889,0.4908,0.4925,0.4953,0.4987,0.5012,0.503,0.5042,0.5046,0.5026,0.5043,0.511,0.512,0.5131,0.5132,0.5028,0.5027,0.497,0.4969,0.4969]},{"header":{"parameterUnit":"m.s-1","parameterCategory":1,"la1":30.2991,"la2":30.254,"lo1":-89.0895,"lo2":-89.0444,"dy":0.0017,"dx":0.0017,"nx":28,"ny":28,"refTime":"2024-06-29T03:00:00:Z","depth":0,"parameterNumber":3,"parameterNumberName":"V-component_of_WINDS"},"data":[0,0,0,0,0,0,0,0,0,0,0,0,0,0,0,0,0,0,0,0,0,0,0,0,0,0,0,0,0,0,0,0,0,0,0,0,0,0,0,0,0,0,0,0,0,0,0,0,0,0,0,0,0,0,0,0,0,0,1.0748,1.0748,0,1.0734,1.0734,1.0733,1.0755,1.0756,1.0757,1.0758,1.0741,1.074,1.0739,0,0,0,0,0,0,0,0,0,0,0,0,0,1.0791,1.079,1.0748,1.0748,1.0747,1.0734,1.0734,1.0733,1.0755,1.0756,1.0757,1.0758,1.0741,1.074,1.0738,0,0,0,0,0,0,0,0,0,0,0,0,0,1.0774,1.079,1.0748,1.0757,1.0758,1.0734,1.0734,1.0733,1.0755,1.0756,1.0757,1.0759,1.0742,1.074,1.0738,1.0704,0,0,1.0733,1.0732,0,0,0,0,0,0,0,0,1.0775,1.0772,1.0756,1.0756,1.0757,1.0748,1.0743,1.0723,1.0755,1.0756,1.0758,1.0759,1.0742,1.074,1.0735,1.0704,1.0703,1.0733,1.0732,1.0731,1.073,0,0,0,0,0,0,0,1.0776,1.0773,1.0742,1.0755,1.0756,1.0761,1.076,1.0739,1.0743,1.0756,1.0758,1.0756,1.0743,1.0737,1.0735,1.0703,1.0733,1.0731,1.073,1.0729,1.0642,1.0641,0,0,0,0,0,0,1.0777,1.0774,1.0743,1.0742,1.0769,1.0759,1.0758,1.0749,1.0743,1.0743,1.0755,1.0757,1.0739,1.0737,1.0734,1.0695,1.0731,1.0729,1.0728,1.0644,1.0642,1.0641,0,0,0,0,0,0,1.0777,1.0774,1.0743,1.0758,1.0755,1.0757,1.0747,1.0748,1.0743,1.0742,1.0742,1.0748,1.074,1.0737,1.0712,1.0694,1.0728,1.0727,1.0645,1.0643,1.0641,1.0615,0,0,0,0,0,0,1.0779,1.0774,1.0762,1.0758,1.0754,1.0722,1.0746,1.0747,1.074,1.0743,1.0736,1.0736,1.0741,1.0714,1.071,1.0693,1.0726,1.0647,1.0644,1.0642,1.0617,1.0612,1.0608,0,0,0,0,0,1.078,1.0754,1.0761,1.0757,1.0739,1.0721,1.0718,1.0725,1.0738,1.0726,1.0725,1.0736,1.0697,1.0712,1.0707,1.0689,1.0648,1.0645,1.0642,1.0619,1.0613,1.0608,0,0,0,0,0,0,1.0755,1.0754,1.0761,1.0734,1.0727,1.0725,1.0709,1.0718,1.0707,1.071,1.0717,1.0715,1.0689,1.0686,1.0703,1.0655,1.0674,1.067,1.0659,1.0653,1.0648,1.065,1.0724,0,0,0,0,0,1.0747,1.0733,1.0732,1.0707,1.0704,1.0707,1.0699,1.0705,1.0698,1.0695,1.0693,1.0685,1.0671,1.0661,1.0648,1.0616,1.0615,1.0601,1.0597,1.0593,1.059,1.0573,1.0567,1.0631,1.0631,1.0631,0,0,1.0729,1.0726,1.0717,1.0702,1.0698,1.0683,1.0705,1.0688,1.0676,1.0692,1.0669,1.0667,1.0659,1.063,1.0617,1.0627,1.0572,1.0589,1.0586,1.0585,1.0569,1.0563,1.0558,1.0629,1.063,1.063,0,0,1.0688,1.0685,1.0665,1.066,1.0653,1.0655,1.065,1.0646,1.0645,1.0622,1.0634,1.062,1.0595,1.0589,1.0582,1.0539,1.0549,1.0534,1.051,1.0494,1.0489,1.0484,1.0469,1.0464,1.0531,1.0531,1.053,0,1.0667,1.0645,1.0653,1.0635,1.0628,1.0642,1.0621,1.0616,1.0605,1.06,1.061,1.058,1.0575,1.0546,1.0535,1.0529,1.0523,1.0536,1.0489,1.0484,1.048,1.0466,1.046,1.0529,1.0529,1.0529,1.0529,0,1.0619,1.0604,1.0588,1.0578,1.0569,1.055,1.0554,1.0543,1.0549,1.055,1.0526,1.052,1.0507,1.05,1.0505,1.047,1.0477,1.0488,1.0507,1.0472,1.0459,1.0454,1.0527,1.0527,1.0528,1.0528,0,0,1.0565,1.0558,1.0553,1.0548,1.0541,1.0529,1.051,1.0497,1.0489,1.048,1.0464,1.0442,1.0453,1.0445,1.0449,1.0435,1.0401,1.0448,1.0448,1.044,1.0364,1.0356,1.035,1.0407,1.0406,1.0405,1.0365,0,1.0526,1.0494,1.0499,1.0468,1.0454,1.0466,1.045,1.0443,1.0443,1.043,1.0429,1.0414,1.0428,1.0424,1.041,1.0408,1.0386,1.0411,1.0392,1.0391,1.0395,1.0343,1.0335,1.0298,1.0359,1.0359,1.0358,0,1.0476,1.0467,1.0434,1.043,1.0424,1.0409,1.0397,1.0385,1.0377,1.0378,1.0369,1.0376,1.0356,1.0375,1.0347,1.0364,1.0356,1.0354,1.0353,1.0352,1.0374,1.0342,1.0286,1.028,1.035,1.035,1.0351,0,1.0441,1.042,1.0398,1.0393,1.0387,1.0376,1.0373,1.0366,1.0358,1.0347,1.0342,1.0329,1.0322,1.0311,1.0313,1.0327,1.0285,1.0304,1.0285,1.0285,1.0277,1.0278,1.022,1.027,1.027,1.027,1.027,0,1.0398,1.0378,1.0382,1.0369,1.0346,1.0352,1.0329,1.0327,1.0321,1.0307,1.0315,1.0302,1.0305,1.0292,1.0293,1.027,1.0266,1.0266,1.0267,1.0266,1.0266,1.0262,1.0266,1.0269,1.0269,1.0269,1.0269,0,1.0355,1.0357,1.0334,1.033,1.0328,1.0312,1.0308,1.0295,1.0294,1.0276,1.0272,1.0272,1.0256,1.0257,1.0239,1.024,1.0212,1.0215,1.0215,1.0216,1.0197,1.02,1.0136,1.0128,1.0182,1.0181,1.0181,0,1.0328,1.0313,1.0307,1.0299,1.0295,1.0281,1.0273,1.0277,1.0268,1.0258,1.0246,1.0231,1.0219,1.0193,1.019,1.0176,1.018,1.0158,1.0178,1.0178,1.0181,1.0182,1.0181,1.0155,1.0154,1.0154,1.0154,0,1.0281,1.0282,1.0271,1.0259,1.0249,1.024,1.0231,1.0224,1.0227,1.0216,1.02,1.0191,1.0173,1.0158,1.0144,1.0139,1.0147,1.0147,1.0142,1.0142,1.0143,1.0143,1.0206,1.0149,1.0149,1.015,1.015,1.015,1.0246,1.0233,1.0227,1.0214,1.0208,1.0199,1.0187,1.0185,1.0173,1.0159,1.0161,1.0143,1.0135,1.0118,1.0112,1.0098,1.0105,1.0098,1.0096,1.0095,1.0093,1.0144,1.0095,1.0095,1.0095,1.0095,1.0095,0,1.02,1.0196,1.0183,1.0172,1.0161,1.0169,1.016,1.015,1.0135,1.0126,1.0115,1.0096,1.0082,1.0077,1.0063,1.0052,1.0055,1.0048,1.005,1.0049,1.0087,1.0093,1.0046,1.0046,1.0046,1.0046,1.0046,1.0046,1.0175,1.0154,1.0154,1.013,1.0126,1.011,1.0104,1.0096,1.009,1.0069,1.0057,1.0055,1.0048,1.0033,1.0019,1.0018,1.0013,1.0005,1.0005,1.0041,1.0046,1.0051,1.0057,1.0003,1.0003,0.9969,0.9969,0.9969]}]]